User: anonymous   Login
Location: Bj�rn�ya
(74.5000°N, 19.0000°E)
Time: 15:55:43
(UTC+02:00)
Language:

DUCHIFAT 1 - Orbit

View from above orbital plane
View from above orbital plane
View from above satellite
View from above satellite

Ground track
Ground track

The orbit data is extracted from the following two-line orbital elements,

1 40021U 14033M   22176.11511591  .00002105  00000-0  20846-3 0  9991
2 40021  98.0122 126.4547 0013178  22.3333 337.8457 14.92915162435847
Epoch (UTC): 25 June 2022 02:45:46
Eccentricity: 0.0013178
inclination: 98.0122°
perigee height: 579 km
apogee height: 598 km
right ascension of ascending node: 126.4547°
argument of perigee: 22.3333°
revolutions per day: 14.92915162
mean anomaly at epoch: 337.8457°
orbit number at epoch: 43584

The dashed part of the orbit path shows where the satellite is in the earth's shadow,  

DLR